Regional Weather Roundup
Issued by NWS

Home | Current Version | Previous Version | Text Only | Print | Product List | Glossary Off
Versions: 1 2 3 4 5 6 7 8 9 10 11 12 13 14 15 16 17 18 19 20 21 22 23 24 25 26 27 28 29 30 31 32 33 34 35 36 37 38 39 40 41 42 43 44 45 46 47 48 49 50

000
ASUS43 KLSX 281959
RWRMO

WEATHER SUMMARY FOR MISSOURI
NATIONAL WEATHER SERVICE SPRINGFIELD MO
200 PM CST WED JAN 28 2015

NOTE: "FAIR" INDICATES FEW OR NO CLOUDS BELOW 12,000 FEET WITH NO
       SIGNIFICANT WEATHER AND/OR OBSTRUCTIONS TO VISIBILITY.
       CURRENT SKY AND/OR WEATHER CONDITIONS ARE NOT AVAILABLE FOR
       CHILLICOTHE AND FARMINGTON.

MOZ001>031-035>038-043-044-053-054-282100-
...NORTHERN AND WESTERN MISSOURI...

CITY           SKY/WX    TMP DP  RH WIND       PRES   REMARKS
KANSAS CTY INT CLOUDY    72  38  29 S24       29.74F
KANSAS C DTWN  FAIR      75  36  24 S18G28    29.75F
LEE`S SUMMIT   FAIR      71  39  31 S13G23    29.78F
ST JOSEPH      FAIR      70  39  32 S14G23    29.72F
CHILLICOTHE      N/A     62  40  44 S16G24    29.80F
KIRKSVILLE     FAIR      48  37  65 SE20      29.86F

$$
MOZ066>068-077>081-088>096-101>105-282100-
...SOUTHWEST MISSOURI...

CITY           SKY/WX    TMP DP  RH WIND       PRES   REMARKS
SPRINGFIELD    FAIR      62  36  37 S23G30    29.92F
JOPLIN         FAIR      75  37  25 S24G36    29.87F

$$
MOZ032>034-039>042-045>050-055>058-069>072-282100-
...CENTRAL MISSOURI...

CITY           SKY/WX    TMP DP  RH WIND       PRES   REMARKS
COLUMBIA       FAIR      58  36  43 S18       29.91F
JEFFERSON CITY FAIR      59  34  39 S13       29.93F
ROLLA          FAIR      54  35  48 S21       29.96F
SEDALIA        FAIR      68  38  33 S24G30    29.86F
OSAGE BEACH    FAIR      61  36  39 S16G24    29.93F

$$
MOZ051-052-059>065-282100-
...EAST CENTRAL MISSOURI...

CITY           SKY/WX    TMP DP  RH WIND       PRES   REMARKS
ST LOUIS INTL  PTSUNNY   48  30  49 S17G25    30.05F
SPIRIT OF STL  FAIR      50  30  46 S12G21    30.02F
ST CHARLES     FAIR      46  33  60 S21       30.04F

$$
MOZ072>076-082>087-097>100-106>115-282100-
...SOUTH CENTRAL AND SOUTHEAST MISSOURI...

CITY           SKY/WX    TMP DP  RH WIND       PRES   REMARKS
CAPE GIRARDEAU FAIR      45  33  63 S13       30.17F
FARMINGTON     FAIR      50  30  46 S16G22    30.11F
POPLAR BLUFF   FAIR      47  34  60 SE9       30.15F
WEST PLAINS    FAIR      51  32  48 SE13      30.07F

$$


USA.gov is the U.S. government's official web portal to all federal, state and local government web resources and services.